Wind_Speed
9 8 8 7 7 6 5 5 4 3 3 2 2 2 3 2 2 3 4 4 4 4 5 6 6 6 7 6 6 6 7 6 7 8 8 7 7 8 8 8 9 8 9
7 7 7 6 6 5 4 3 2 2 2 2 2 2 2 3 3 3 4 4 5 6 6 7 7 7 7 8 8 7 7 7 8 8 9 9 9 9 9 9 10 10 10
7 6 6 6 5 4 3 3 3 2 2 2 2 2 3 3 3 4 4 5 6 7 7 8 8 7 8 8 8 8 8 8 9 9 9 9 9 10 10 10 10 11 11
6 5 5 4 4 3 3 3 3 3 2 2 2 2 3 3 3 4 5 6 6 7 7 8 8 8 9 9 9 9 9 9 10 10 10 10 10 10 10 10 11 11 11
5 4 4 4 3 2 2 1 1 1 2 2 2 3 3 3 4 4 6 7 7 7 8 8 8 9 10 10 10 10 10 10 10 10 10 11 11 11 11 11 12 12 12
4 3 3 3 2 1 1 1 1 1 1 2 2 3 3 4 5 6 7 8 8 8 8 8 9 10 11 11 11 11 11 11 11 11 11 11 12 12 12 12 12 13 13
3 2 2 2 2 2 1 1 0 1 2 2 3 3 3 4 5 7 8 8 8 8 8 9 10 11 11 12 12 11 11 11 12 12 12 12 12 12 12 13 13 13 13
2 2 2 2 2 2 1 1 1 2 2 2 3 4 4 5 6 7 7 8 8 9 10 10 11 11 11 12 11 11 11 12 12 12 13 13 13 13 13 13 13 14 14
1 1 1 1 2 2 2 2 2 2 3 3 3 4 5 6 7 8 9 9 9 10 11 12 12 12 12 13 13 12 12 13 13 13 14 14 14 14 14 14 14 14 15
0 0 0 1 2 3 3 3 3 4 4 4 5 6 6 7 8 8 10 11 11 12 13 13 13 13 13 13 13 13 14 14 14 14 15 15 14 14 15 15 16 15 15
0 1 1 2 3 3 4 4 5 5 5 6 6 7 7 8 9 9 10 11 12 13 14 14 14 14 14 14 14 15 15 15 15 16 16 16 15 15 15 15 16 16 16
1 2 3 3 4 4 5 6 6 6 7 7 8 9 9 9 10 10 10 11 12 13 15 16 15 14 15 15 16 16 16 16 16 17 16 16 16 15 16 16 16 16 17
3 3 4 5 5 6 6 6 7 8 8 8 9 10 10 11 12 12 12 12 13 14 15 16 16 16 16 17 17 16 17 16 17 17 17 17 17 16 16 16 16 17 18
5 5 6 6 6 7 7 7 8 9 9 10 11 11 12 14 14 14 14 14 15 15 16 16 16 17 17 18 18 17 18 18 18 18 18 18 17 17 17 17 17 17 18
7 6 7 7 8 8 8 9 9 10 11 12 13 13 14 16 16 17 17 17 17 16 17 18 18 18 18 18 18 18 18 18 18 18 18 18 19 19 19 18 19 19 19
8 9 9 9 10 10 10 11 11 12 13 14 15 16 17 18 18 18 18 18 18 18 19 20 19 19 19 19 19 19 19 20 19 19 19 19 20 20 20 20 20 20 20
10 11 11 12 12 12 13 13 14 15 16 16 17 18 19 20 19 20 20 19 20 20 21 22 22 21 21 21 21 21 21 20 20 20 20 20 20 21 21 21 22 22 21
13 13 14 14 14 14 14 15 16 17 17 18 19 20 21 21 21 21 21 21 21 21 22 23 23 23 23 23 22 22 22 22 21 21 21 22 22 22 22 22 22 22 22
15 15 15 15 16 16 16 17 17 18 19 20 20 21 22 22 22 23 23 23 23 23 24 24 24 24 23 23 23 23 22 23 22 22 22 22 22 23 24 24 24 24 23
17 16 17 17 18 18 19 19 20 21 21 21 22 23 24 24 24 24 24 24 25 25 26 26 25 24 24 24 24 24 24 24 24 24 24 24 24 24 25 26 26 26 26
19 19 19 19 19 20 21 21 22 22 23 23 24 24 25 25 25 25 26 26 27 27 27 27 26 26 25 25 25 25 25 25 26 26 26 26 26 26 26 26 27 27 27
21 21 22 21 21 22 23 23 24 24 25 25 25 26 26 27 27 28 28 28 28 29 28 28 28 27 26 27 27 27 27 26 26 26 27 27 28 27 27 27 28 27 27
22 23 23 23 23 24 25 25 26 27 27 27 27 28 29 29 29 29 29 29 30 30 30 30 29 29 28 28 28 28 28 28 27 28 28 28 28 27 28 28 28 28 28
25 24 25 25 26 26 27 27 28 28 28 29 29 29 29 29 29 29 30 30 30 31 31 31 31 30 29 28 29 29 29 29 29 30 30 29 29 29 29 28 28 29 29
27 27 27 27 28 28 28 29 29 30 29 29 30 30 30 30 30 30 31 32 31 31 32 33 32 31 31 31 31 31 30 31 30 30 31 31 31 31 30 30 30 30 30
30 30 30 30 30 30 31 32 32 31 31 31 31 32 32 31 32 32 33 33 33 33 33 33 33 33 33 33 32 32 32 32 32 31 32 32 32 32 32 31 31 32 32
Wind_Direction
111 112 108 110 112 111 111 109 110 106 92 71 48 34 16 356 334 330 334 335 333 325 321 322 317 305 298 293 294 296 294 294 293 289 281 278 278 276 275 273 276 280 276
103 106 109 115 109 109 105 102 103 105 91 74 54 5 348 332 320 329 334 333 328 323 320 321 319 310 297 290 291 294 291 291 294 291 287 281 278 276 276 275 274 278 278
102 102 109 114 110 111 104 99 83 76 69 37 21 356 327 316 311 330 333 333 328 324 324 326 325 314 302 294 292 294 289 287 288 287 285 286 282 277 277 277 275 276 279
96 92 90 99 100 105 101 85 75 56 40 29 5 349 335 317 317 330 333 330 329 329 327 324 321 318 311 302 293 290 286 287 285 284 281 282 281 279 276 277 278 277 279
93 87 80 84 94 107 111 100 85 36 33 21 353 342 336 333 331 333 334 333 330 325 327 329 328 324 322 313 301 294 291 289 287 284 282 281 281 280 277 278 278 277 278
80 73 69 64 59 73 107 130 80 33 2 353 345 347 344 342 339 339 336 335 335 331 331 330 329 323 321 317 309 300 294 293 293 289 285 283 283 281 279 279 279 280 278
78 63 33 19 30 26 44 65 22 342 333 333 336 343 339 336 334 331 330 331 330 329 330 328 327 327 324 319 311 306 299 297 295 290 288 287 289 285 282 282 280 281 279
82 55 21 5 5 5 351 330 315 311 313 314 321 325 324 327 328 328 328 327 325 325 326 326 327 326 322 321 315 310 305 299 295 292 291 292 290 287 283 283 282 280 279
54 41 35 354 337 332 336 325 309 308 315 312 319 321 318 321 324 325 323 321 319 319 323 322 320 321 317 315 313 308 304 300 298 293 293 291 290 286 283 282 282 279 277
32 176 148 315 304 308 309 315 317 312 314 320 322 318 315 317 322 324 323 321 319 318 319 317 317 316 312 311 311 308 303 301 301 297 295 293 290 287 285 283 281 280 279
308 254 260 281 292 297 299 303 306 310 312 311 311 314 314 313 315 314 318 321 320 318 316 316 315 315 312 310 307 306 302 300 298 296 293 291 288 286 284 283 282 279 279
306 287 273 281 291 294 295 298 301 307 309 311 313 316 315 312 313 315 316 321 321 320 318 318 314 314 315 312 307 305 303 299 298 296 295 295 294 290 286 284 282 280 280
292 295 287 287 283 282 288 296 304 305 304 306 308 312 314 313 312 312 312 314 317 316 316 318 316 313 315 314 309 305 303 300 298 296 295 296 294 289 290 288 284 281 280
296 301 300 293 290 288 289 293 295 299 299 302 302 305 307 310 311 311 311 310 311 311 311 312 312 312 312 311 311 305 303 299 298 295 295 295 291 288 289 288 287 284 282
293 293 292 293 290 290 286 286 289 293 296 298 301 304 307 309 309 309 308 307 308 307 308 309 309 307 308 308 308 305 304 300 298 296 294 294 291 288 287 289 289 287 286
292 290 289 289 290 289 285 283 288 292 294 293 295 299 302 306 308 308 308 309 308 308 308 307 307 306 306 305 303 302 301 299 298 297 294 291 289 286 285 284 286 285 284
290 288 285 287 291 290 285 283 288 291 293 295 296 297 299 301 303 305 305 305 307 309 308 306 304 303 303 304 303 301 301 297 297 295 294 292 289 286 283 282 283 284 282
287 289 287 285 288 289 286 284 289 292 292 295 296 296 296 298 301 302 302 302 305 306 307 306 304 302 302 302 301 299 298 298 296 295 294 293 291 287 285 284 283 283 281
283 287 287 285 286 287 286 284 287 291 292 294 296 296 295 297 301 300 299 300 300 301 303 304 303 301 302 301 299 298 298 298 296 294 294 293 291 287 285 284 283 283 281
282 283 285 285 285 285 286 286 286 290 290 292 293 293 294 295 297 297 298 298 298 299 300 301 302 302 301 298 298 297 298 297 295 295 294 293 290 287 285 283 283 282 282
283 284 284 284 284 286 287 286 286 286 289 290 292 293 294 295 296 296 297 297 297 297 298 299 299 299 298 296 296 295 296 297 295 295 295 294 292 288 285 284 283 282 281
282 285 283 285 285 286 286 287 287 286 288 289 291 292 293 293 294 295 294 296 296 295 296 297 297 296 295 294 294 294 296 296 295 295 295 294 293 290 288 286 284 283 281
281 283 285 285 285 287 289 287 286 287 288 290 292 293 292 293 293 294 293 295 295 294 295 296 297 296 294 293 293 293 294 295 294 293 294 294 292 291 288 287 285 283 282
282 283 284 284 285 285 287 288 288 288 289 289 291 294 294 293 294 293 292 292 295 295 294 295 296 296 293 292 293 292 293 293 293 293 293 293 292 292 291 288 286 284 283
284 285 285 284 285 285 286 287 287 287 289 290 292 294 295 295 295 295 294 295 295 295 294 295 295 295 293 292 292 292 292 292 293 293 292 292 292 291 290 289 287 287 286
282 283 284 283 284 285 286 286 287 287 288 289 290 291 292 293 293 294 295 294 294 293 293 293 293 293 291 291 291 291 291 291 292 292 291 291 291 290 290 289 287 286 284
Height
5887 5888 5889 5890 5890 5891 5892 5892 5893 5893 5893 5893 5893 5894 5893 5893 5893 5893 5892 5892 5891 5891 5890 5889 5888 5888 5887 5886 5886 5885 5885 5884 5884 5883 5883 5882 5882 5882 5882 5882 5881 5881 5881
5889 5889 5890 5891 5891 5892 5892 5893 5893 5893 5893 5894 5894 5894 5893 5893 5893 5892 5892 5891 5891 5890 5889 5888 5887 5886 5885 5885 5885 5884 5883 5883 5882 5882 5881 5881 5880 5880 5880 5879 5879 5879 5879
5891 5891 5891 5892 5892 5893 5893 5893 5894 5894 5894 5894 5894 5894 5893 5893 5892 5892 5892 5891 5890 5889 5888 5887 5886 5885 5884 5883 5883 5882 5882 5881 5881 5880 5879 5879 5878 5878 5878 5877 5877 5877 5877
5892 5892 5892 5893 5893 5893 5893 5894 5894 5894 5894 5894 5894 5893 5893 5893 5893 5892 5891 5890 5890 5888 5887 5886 5885 5884 5883 5882 5881 5880 5880 5879 5878 5878 5877 5877 5876 5876 5875 5875 5875 5875 5874
5893 5893 5893 5893 5893 5894 5894 5894 5894 5894 5894 5894 5894 5893 5893 5892 5892 5891 5891 5890 5889 5887 5886 5885 5883 5882 5881 5880 5879 5878 5877 5877 5876 5875 5875 5874 5874 5873 5873 5872 5872 5872 5872
5893 5894 5894 5894 5894 5894 5894 5894 5894 5894 5894 5894 5893 5893 5893 5892 5891 5891 5890 5889 5888 5886 5885 5884 5883 5881 5880 5878 5877 5876 5875 5874 5874 5873 5872 5872 5871 5870 5870 5870 5869 5869 5869
5894 5894 5894 5894 5894 5894 5894 5894 5894 5894 5894 5893 5893 5893 5892 5892 5891 5890 5889 5888 5887 5885 5884 5883 5881 5880 5878 5877 5875 5874 5873 5873 5871 5870 5870 5869 5868 5868 5867 5866 5866 5866 5865
5894 5894 5894 5894 5894 5894 5894 5894 5894 5894 5893 5893 5893 5892 5892 5892 5890 5889 5888 5887 5886 5884 5883 5882 5880 5879 5877 5875 5874 5872 5871 5871 5869 5868 5867 5866 5865 5865 5864 5863 5863 5863 5862
5894 5894 5894 5894 5894 5894 5894 5894 5893 5893 5893 5892 5892 5892 5891 5891 5890 5888 5887 5885 5884 5883 5882 5880 5879 5877 5875 5873 5872 5870 5869 5868 5867 5866 5865 5863 5862 5861 5860 5860 5859 5859 5858
5894 5894 5894 5894 5894 5894 5893 5893 5893 5892 5892 5892 5891 5890 5890 5889 5888 5887 5886 5884 5883 5881 5880 5878 5876 5875 5873 5871 5869 5868 5867 5865 5864 5863 5861 5860 5859 5858 5857 5856 5855 5854 5854
5894 5894 5893 5893 5893 5893 5893 5892 5892 5891 5891 5890 5890 5889 5888 5888 5886 5886 5884 5883 5881 5879 5877 5876 5874 5872 5870 5868 5867 5865 5864 5862 5861 5859 5858 5857 5855 5854 5853 5852 5851 5850 5850
5893 5893 5893 5893 5892 5892 5892 5891 5891 5890 5890 5889 5888 5888 5887 5886 5885 5883 5882 5881 5879 5877 5875 5873 5871 5869 5867 5865 5864 5862 5860 5859 5857 5856 5854 5853 5851 5850 5849 5848 5847 5846 5846
5893 5892 5892 5891 5891 5891 5890 5890 5889 5889 5888 5888 5887 5886 5885 5884 5882 5881 5880 5878 5876 5875 5873 5871 5868 5866 5864 5862 5860 5858 5856 5855 5853 5851 5850 5848 5847 5846 5845 5844 5843 5842 5842
5891 5891 5890 5890 5889 5889 5889 5888 5887 5887 5886 5885 5885 5884 5883 5881 5880 5878 5877 5875 5873 5872 5870 5868 5865 5863 5861 5859 5856 5854 5852 5850 5849 5847 5846 5844 5843 5842 5841 5840 5839 5838 5837
5890 5889 5889 5888 5887 5887 5886 5886 5885 5885 5884 5883 5882 5881 5880 5878 5877 5875 5873 5871 5870 5868 5866 5864 5862 5859 5857 5855 5853 5850 5848 5846 5844 5843 5841 5839 5838 5837 5836 5835 5834 5833 5832
5888 5887 5887 5886 5885 5884 5883 5883 5882 5882 5881 5880 5878 5877 5876 5875 5873 5871 5869 5868 5866 5864 5862 5860 5857 5855 5853 5850 5848 5846 5844 5841 5840 5838 5836 5834 5833 5832 5831 5830 5829 5828 5827
5886 5885 5884 5883 5882 5881 5880 5879 5879 5878 5877 5876 5875 5873 5872 5870 5869 5867 5865 5864 5861 5859 5857 5855 5852 5850 5848 5845 5843 5841 5838 5836 5835 5833 5831 5829 5828 5826 5825 5824 5823 5822 5821
5882 5881 5881 5880 5879 5878 5877 5876 5875 5874 5873 5872 5870 5869 5867 5866 5864 5862 5860 5858 5856 5854 5852 5850 5847 5845 5842 5840 5838 5835 5833 5831 5829 5827 5825 5824 5822 5820 5819 5818 5817 5816 5815
5878 5877 5877 5876 5875 5874 5873 5872 5871 5870 5869 5867 5866 5864 5862 5861 5859 5857 5855 5853 5851 5849 5847 5844 5842 5839 5837 5835 5832 5830 5827 5825 5823 5821 5820 5818 5816 5814 5813 5812 5810 5809 5808
5874 5873 5872 5871 5871 5870 5869 5867 5866 5865 5864 5862 5861 5859 5857 5855 5853 5851 5849 5847 5845 5843 5841 5838 5836 5834 5831 5829 5826 5824 5821 5819 5817 5815 5813 5811 5810 5808 5806 5805 5804 5802 5801
5869 5868 5867 5866 5866 5865 5864 5862 5861 5859 5858 5856 5855 5853 5851 5849 5847 5845 5843 5841 5839 5837 5834 5832 5830 5827 5825 5822 5820 5817 5815 5813 5811 5809 5807 5804 5802 5800 5799 5797 5796 5795 5794
5864 5863 5862 5861 5860 5859 5858 5856 5855 5853 5851 5850 5848 5846 5844 5842 5840 5838 5836 5834 5832 5830 5827 5825 5823 5820 5818 5815 5813 5810 5808 5806 5804 5802 5799 5797 5794 5793 5791 5789 5788 5787 5786
5858 5857 5856 5855 5854 5853 5851 5850 5848 5846 5845 5843 5841 5839 5837 5835 5833 5831 5828 5826 5824 5821 5819 5817 5815 5813 5810 5808 5805 5803 5800 5798 5796 5794 5791 5789 5786 5784 5783 5781 5780 5778 5777
5851 5850 5850 5849 5848 5846 5845 5843 5842 5840 5838 5836 5834 5831 5829 5827 5825 5823 5820 5818 5815 5813 5811 5809 5806 5804 5802 5799 5797 5795 5792 5790 5788 5785 5783 5781 5779 5776 5774 5773 5771 5769 5768
5844 5844 5843 5841 5840 5839 5837 5836 5834 5832 5830 5828 5826 5824 5821 5819 5817 5814 5812 5810 5808 5805 5802 5799 5797 5795 5793 5791 5788 5786 5783 5781 5779 5776 5774 5772 5770 5768 5766 5764 5762 5760 5758
5837 5836 5835 5834 5833 5831 5829 5827 5825 5824 5822 5820 5818 5815 5813 5811 5808 5806 5804 5801 5799 5797 5794 5791 5788 5786 5783 5781 5779 5777 5774 5772 5769 5767 5765 5762 5760 5758 5757 5755 5752 5750 5749